{"data":{"norad_id":44528,"intl_designator":"2019-059A","name":"ZY-1 02D","alt_names":[],"object_type":"PAYLOAD","status":"ACTIVE","operator":null,"country":"PRC","launch_date":"2019-09-12","launch_site_code":"TAISC","launch_vehicle":null,"mission":null,"orbit_class":"UNKNOWN","rcs_meters":null,"size_class":null,"mass_kg":null,"dimensions":null,"purposes":[],"wikipedia_slug":null,"has_3d_model":false,"image_url":null,"decayed_at":null,"tle_current":{"epoch":"2026-05-25T04:56:58.062048Z","epoch_age_seconds":53110,"freshness":"FRESH","line1":"1 44528U 19059A   26145.20622757  .00000086  00000+0  44395-4 0  9998","line2":"2 44528  98.3196 207.5034 0001561 143.6654 216.4638 14.35451572351044","mean_motion":14.35451572,"eccentricity":0.0001561,"inclination_deg":98.3196,"raan_deg":207.5034,"arg_perigee_deg":143.6654,"mean_anomaly_deg":216.4638,"bstar":4.4395e-5,"rev_number":35104,"period_min":100.31686391159,"perigee_km":772.4497393437,"apogee_km":774.68250105782,"semimajor_km":7151.7031202008,"source":"CELESTRAK","updated_at":"2026-05-25T13:37:55.999918Z"}}}